Location: Marcé
(47.5801°N, 0.3280°W)
Time: 17:26:43
(UTC+02:00)

ZHUHAI-1 OHS-01 - Visible Passes

Search period start: 03 July 2022 00:00
Search period end: 13 July 2022 00:00
Orbit: 492 x 509 km, 97.2° (Epoch: 02 July)

Date Brightness Start Highest point End Pass type
(mag) Time Alt. Az. Time Alt. Az. Time Alt. Az.
03 Jul ? 22:59:46 10° S 23:03:24 71° WSW 23:07:05 10° NNW visible
04 Jul ? 22:40:24 10° SSE 22:44:01 67° ENE 22:47:41 10° N visible
05 Jul ? 00:17:59 10° W 00:18:16 10° W 00:18:33 10° W visible
05 Jul ? 23:56:16 10° SW 23:58:39 17° W 00:01:05 10° NW visible
06 Jul ? 23:36:00 10° SSW 23:39:07 26° W 23:42:17 10° NW visible
07 Jul ? 23:16:07 10° S 23:19:38 44° W 23:23:11 10° NNW visible
08 Jul ? 22:56:31 10° S 23:00:10 77° WSW 23:03:53 10° NNW visible
09 Jul ? 22:37:10 10° SSE 22:40:46 62° ENE 22:44:26 10° N visible
10 Jul ? 00:13:55 10° WSW 00:14:58 11° W 00:16:01 10° WNW visible
10 Jul ? 23:52:48 10° SW 23:55:21 18° W 23:57:56 10° NW visible
11 Jul ? 23:32:34 10° SSW 23:35:46 28° W 23:39:03 10° NW visible
12 Jul ? 23:12:42 10° S 23:16:16 48° W 23:19:52 10° NNW visible
